Tracking 31027 objects as of 19-Jul-2025
HD Live streaming from Space Station
objects crossing your sky now

SIRIUS-SINP-3U

Track SIRIUS-SINP-3U now!
10-day predictions
SIRIUS-SINP-3U is classified as:


NORAD ID: 57170
Int'l Code: 2023-091E
Perigee: 512.5 km
Apogee: 527.8 km
Inclination: 97.6 °
Period: 94.9 minutes
Semi major axis: 6891 km
RCS: Unknown
Launch date: June 27, 2023
Source: (TBD)
Launch site: VOSTOCHNY COSMODROME (VOSTO)

Uplink (MHz):
Downlink (MHz): 436.550
Beacon (MHz):
Mode: 1k2AFSK/4k8GMSK
Call sign:
Status: Inactive


Uplink (MHz):
Downlink (MHz): 436.260
Beacon (MHz):
Mode: LoRa
Call sign: RS52SG
Status: Unknown

Your satellite tracking list
SES-6
Track 1 satellite(s)




NASA's NSSDC Master Catalog

Two Line Element Set (TLE):
1 57170U 23091E   25199.83551169  .00006359  00000-0  31897-3 0  9993
2 57170  97.5602 256.3661 0011046 168.1749 191.9746 15.17630835113492
Source of the keplerian elements: AFSPC